Location: Gull Harbor
(47.1000°N, 122.9000°W)
Time: 12:55:33
(UTC-08:00)

Envisat - Pass Details

Date: 23 October 2019
Orbit: 764 x 766 km, 98.1° (Epoch: 22 November)

Event Time Altitude Azimuth Distance (km) Brightness Sun altitude
Rises 18:39:30 0° 150° (SSE) 3,222 6.0 -5.7°
Reaches altitude 10° 18:41:50 10° 146° (SE) 2,300 5.3 -6.1°
Maximum altitude 18:46:45 53° 71° (ENE) 936 3.1 -6.9°
Drops below altitude 10° 18:51:42 10° 355° (N) 2,315 5.5 -7.8°
Sets 18:54:03 0° 351° (N) 3,246 6.3 -8.2°
